Starlink 1848

operational
NORAD ID: 46740 Int'l Des: 2020-074 Owner: SPXS Country: US Constellation: starlink
LEOCIRCULAR

Über Starlink 1848

Beschreibung wird geladen...

Live-Position

3D-Globus wird geladen...

Nächste Überflüge

Höhenverlauf

Altitude vs Time

uPlot chart will show altitude changes over time

Zweizeiliger Elementsatz

1 46740U 20074B 25302.92580285 .00060681 00000-0 12396-2 0 9999
2 46740 53.0495 177.2112 0012440 96.2764 263.9659 15.45533734277124
Epoch: 29. Okt. 2025 • Age: 28 hours

Aktueller Status

Höhe 434.0 km
Geschwindigkeit 7.65 km/s
Subsatellitenpunkt -6.68°S, 95.24°E
Startdatum 24. Okt. 2020
Alter 5 years
Typ internet

Technische Details

Klassifizierung Payload
Masse 260.00 kg
Trockenmasse 248.00 kg
Gesamtmasse 260.00 kg
Länge 0.20 m
Durchmesser 2.80 m
Spannweite 9.00 m
Form Box + pan
Hersteller SPXS
Bus-Typ Starlink
Phasenstatus In Orbit
Besitzer/Staat SPXS/US

Große Konstellationen

Loading constellations...